Location: Gleizolles
(44.4833°N, 6.7667°E)
Time: 13:45:43
(UTC+00:00)

A-11 Canister half - Pass Details

Date: 14 June 2024
Orbit: 1515 x 1684 km, 47.2° (Epoch: 24 July)

Event Time Altitude Azimuth Distance (km) Brightness Sun altitude
Rises 00:34:37 0° 290° (WNW) 4,833 11.7 -20.8°
Reaches altitude 10° 00:37:46 10° 290° (WNW) 3,823 11.1 -20.7°
Maximum altitude 00:47:27 79° 206° (SSW) 1,587 8.9 -20.1°
Drops below altitude 10° 00:56:47 10° 121° (ESE) 3,694 10.9 -19.6°
Sets 00:59:47 0° 120° (ESE) 4,663 11.4 -19.4°
